When you browse on this site, cookies collect data to enhance your experience and personalize the content and advertising you see.
Visit our Privacy Policy to learn more. By continuing to use the site, you agree to this use of cookies and data.
  • In Latvia
  • List of Countries
  • For 7 days
  • Water Temperature
  • Satellite Maps
  • Weather Map
  • Weather Widgets
  • user-avatar
    Login

    Hourly Weather Kaprun

    Today, 22 March, Friday

    Time Temperature Precipitation Wind Pressure Humidity
    00:00 -6°C° 0 mm 2 mps 602 mmHg 47%
    01:00 -5°C° 0 mm 2 mps 602 mmHg 40%
    02:00 -5°C° 0 mm 2 mps 602 mmHg 41%
    03:00 -5°C° 0 mm 2 mps 601 mmHg 41%
    04:00 -5°C° 0 mm 2 mps 601 mmHg 42%
    05:00 -5°C° 0 mm 2 mps 601 mmHg 43%
    06:00 -4°C° 0 mm 2 mps 602 mmHg 45%
    07:00 -4°C° 0 mm 2 mps 602 mmHg 46%
    08:00 -2°C° 0 mm 2 mps 603 mmHg 57%
    09:00 +2°C° 0 mm 2 mps 603 mmHg 68%
    10:00 +4°C° 0 mm 2 mps 604 mmHg 80%
    11:00 +6°C° 0 mm 1 mps 604 mmHg 79%
    12:00 +7°C° 0 mm 1 mps 604 mmHg 78%
    13:00 +7°C° 0 mm 1 mps 604 mmHg 76%
    14:00 +7°C° 0 mm 1 mps 604 mmHg 79%
    15:00 +6°C° 0 mm 0 mps 604 mmHg 82%
    16:00 +5°C° 0 mm 0 mps 603 mmHg 84%
    17:00 +3°C° 0 mm 0 mps 603 mmHg 83%
    18:00 +2°C° 0 mm 1 mps 602 mmHg 82%
    19:00 0°C° 0 mm 1 mps 601 mmHg 81%
    20:00 0°C° 0 mm 1 mps 601 mmHg 79%
    21:00 0°C° 0 mm 1 mps 601 mmHg 76%
    22:00 -1°C° 0 mm 1 mps 601 mmHg 74%
    23:00 -1°C° 0 mm 1 mps 601 mmHg 72%

    Tomorrow, 23 March, Saturday

    Time Temperature Precipitation Wind Pressure Humidity
    00:00 -1°C° 0 mm 1 mps 601 mmHg 71%
    01:00 -1°C° 0 mm 1 mps 601 mmHg 69%
    02:00 -1°C° 0 mm 1 mps 601 mmHg 69%
    03:00 -1°C° 0 mm 1 mps 601 mmHg 69%
    04:00 -2°C° 0 mm 1 mps 600 mmHg 68%
    05:00 -1°C° 0 mm 1 mps 601 mmHg 69%
    06:00 -1°C° 0 mm 1 mps 601 mmHg 70%
    07:00 -1°C° 0 mm 1 mps 601 mmHg 71%
    08:00 +1°C° 0 mm 1 mps 601 mmHg 73%
    09:00 +3°C° 0 mm 1 mps 602 mmHg 76%
    10:00 +4°C° 0 mm 0 mps 603 mmHg 78%
    11:00 +5°C° 0 mm 0 mps 603 mmHg 77%
    12:00 +6°C° 0 mm 0 mps 603 mmHg 76%
    13:00 +6°C° 0 mm 0 mps 603 mmHg 74%
    14:00 +7°C° 0 mm 1 mps 603 mmHg 77%
    15:00 +7°C° 0 mm 1 mps 602 mmHg 79%
    16:00 +7°C° 0 mm 1 mps 602 mmHg 81%
    17:00 +4°C° 0 mm 1 mps 601 mmHg 84%
    18:00 +2°C° 0 mm 1 mps 600 mmHg 87%
    19:00 -1°C° 0 mm 0 mps 599 mmHg 91%
    20:00 0°C° 0 mm 1 mps 600 mmHg 90%
    21:00 0°C° 0 mm 1 mps 600 mmHg 90%
    22:00 0°C° 0 mm 1 mps 600 mmHg 90%
    23:00 -1°C° 0 mm 1 mps 600 mmHg 89%

    Day after tomorrow, 24 March, Sunday

    Time Temperature Precipitation Wind Pressure Humidity
    00:00 -1°C° 0 mm 1 mps 600 mmHg 87%
    01:00 -1°C° 0 mm 1 mps 600 mmHg 86%
    02:00 -1°C° 0 mm 1 mps 599 mmHg 84%
    03:00 -1°C° 0 mm 1 mps 599 mmHg 82%
    04:00 -1°C° 0 mm 1 mps 599 mmHg 79%
    05:00 -1°C° 0 mm 1 mps 599 mmHg 77%
    06:00 -1°C° 0 mm 1 mps 599 mmHg 76%
    07:00 0°C° 0 mm 1 mps 599 mmHg 74%
    08:00 +2°C° 0 mm 1 mps 600 mmHg 73%
    09:00 +4°C° 0 mm 1 mps 600 mmHg 73%
    10:00 +6°C° 0 mm 1 mps 601 mmHg 73%
    11:00 +6°C° 0 mm 1 mps 601 mmHg 73%
    12:00 +7°C° 0 mm 1 mps 601 mmHg 73%
    13:00 +6°C° 0 mm 2 mps 601 mmHg 73%
    14:00 +6°C° 0 mm 2 mps 601 mmHg 77%
    15:00 +5°C° 0 mm 2 mps 600 mmHg 82%
    16:00 +4°C° 0 mm 2 mps 600 mmHg 86%
    17:00 +3°C° 0.1 mm 2 mps 599 mmHg 90%
    18:00 +2°C° 0.1 mm 2 mps 599 mmHg 93%
    19:00 +1°C° 0.1 mm 2 mps 599 mmHg 97%
    20:00 +1°C° 0.1 mm 2 mps 599 mmHg 97%
    21:00 -1°C° 0.1 mm 2 mps 599 mmHg 97%
    22:00 -1°C° 0.1 mm 2 mps 599 mmHg 98%
    23:00 -1°C° 0.1 mm 2 mps 599 mmHg 98%

    25 March, Monday

    Time Temperature Precipitation Wind Pressure Humidity
    00:00 -1°C° 0.1 mm 2 mps 599 mmHg 98%
    01:00 -2°C° 0.1 mm 2 mps 599 mmHg 98%
    02:00 -2°C° 0.1 mm 2 mps 599 mmHg 98%
    03:00 -2°C° 0.1 mm 2 mps 599 mmHg 97%
    04:00 -2°C° 0.1 mm 2 mps 599 mmHg 97%
    05:00 -3°C° 0.1 mm 2 mps 599 mmHg 97%
    06:00 -3°C° 0.1 mm 2 mps 599 mmHg 97%
    07:00 -3°C° 0.1 mm 2 mps 599 mmHg 96%
    08:00 -3°C° 0.1 mm 2 mps 599 mmHg 93%
    09:00 -3°C° 0.1 mm 2 mps 599 mmHg 90%
    10:00 -2°C° 0.1 mm 2 mps 599 mmHg 87%
    11:00 -2°C° 0.1 mm 2 mps 599 mmHg 86%
    12:00 -2°C° 0.1 mm 2 mps 599 mmHg 85%
    13:00 -2°C° 0.1 mm 3 mps 598 mmHg 84%
    14:00 -2°C° 0.1 mm 3 mps 598 mmHg 84%
    15:00 -2°C° 0.1 mm 3 mps 598 mmHg 85%
    16:00 -4°C° 0.1 mm 4 mps 597 mmHg 86%
    17:00 -5°C° 0.1 mm 3 mps 597 mmHg 88%
    18:00 -6°C° 0.1 mm 3 mps 597 mmHg 89%
    19:00 -6°C° 0.1 mm 3 mps 597 mmHg 90%
    20:00 -7°C° 0.3 mm 3 mps 597 mmHg 91%
    21:00 -7°C° 0.3 mm 3 mps 598 mmHg 92%
    22:00 -7°C° 0.3 mm 3 mps 598 mmHg 92%
    23:00 -9°C° 0.6 mm 4 mps 598 mmHg 93%

    26 March, Tuesday

    Time Temperature Precipitation Wind Pressure Humidity
    00:00 -9°C° 0.6 mm 4 mps 598 mmHg 93%
    01:00 -11°C° 0.6 mm 5 mps 599 mmHg 93%
    02:00 -10°C° 0.2 mm 4 mps 598 mmHg 93%
    03:00 -11°C° 0.2 mm 4 mps 598 mmHg 92%
    04:00 -12°C° 0.2 mm 4 mps 598 mmHg 92%
    05:00 -12°C° 0.1 mm 3 mps 598 mmHg 90%
    06:00 -12°C° 0.1 mm 3 mps 599 mmHg 89%
    07:00 -12°C° 0.1 mm 3 mps 599 mmHg 87%
    08:00 -10°C° 0 mm 3 mps 600 mmHg 82%
    09:00 -10°C° 0 mm 4 mps 600 mmHg 77%
    10:00 -9°C° 0 mm 4 mps 601 mmHg 72%
    11:00 -9°C° 0 mm 4 mps 601 mmHg 70%
    12:00 -7°C° 0 mm 3 mps 601 mmHg 68%
    13:00 -6°C° 0 mm 3 mps 601 mmHg 66%
    14:00 -6°C° 0 mm 3 mps 601 mmHg 66%
    15:00 -6°C° 0 mm 3 mps 601 mmHg 66%
    16:00 -6°C° 0 mm 3 mps 601 mmHg 66%
    17:00 -7°C° 0 mm 2 mps 600 mmHg 74%
    18:00 -8°C° 0 mm 2 mps 600 mmHg 82%
    19:00 -9°C° 0 mm 1 mps 600 mmHg 90%
    20:00 -9°C° 0 mm 1 mps 600 mmHg 86%
    21:00 -9°C° 0 mm 1 mps 601 mmHg 82%
    22:00 -10°C° 0 mm 1 mps 601 mmHg 78%
    23:00 -9°C° 0 mm 1 mps 601 mmHg 73%

    27 March, Wednesday

    Time Temperature Precipitation Wind Pressure Humidity
    00:00 -9°C° 0 mm 1 mps 601 mmHg 68%
    01:00 -9°C° 0 mm 1 mps 601 mmHg 62%
    02:00 -9°C° 0 mm 1 mps 601 mmHg 58%
    03:00 -9°C° 0 mm 1 mps 601 mmHg 54%
    04:00 -9°C° 0 mm 1 mps 601 mmHg 50%
    05:00 -10°C° 0 mm 2 mps 601 mmHg 48%
    06:00 -9°C° 0 mm 2 mps 602 mmHg 46%
    07:00 -9°C° 0 mm 2 mps 602 mmHg 44%
    08:00 -6°C° 0 mm 2 mps 603 mmHg 41%
    09:00 -4°C° 0 mm 2 mps 603 mmHg 38%
    10:00 -2°C° 0 mm 2 mps 604 mmHg 36%
    11:00 -1°C° 0 mm 2 mps 604 mmHg 38%
    12:00 0°C° 0 mm 3 mps 604 mmHg 40%
    13:00 0°C° 0 mm 3 mps 604 mmHg 41%
    14:00 0°C° 0 mm 3 mps 604 mmHg 44%
    15:00 0°C° 0 mm 3 mps 603 mmHg 46%
    16:00 -1°C° 0 mm 3 mps 603 mmHg 48%
    17:00 -2°C° 0 mm 3 mps 603 mmHg 57%
    18:00 -4°C° 0 mm 2 mps 602 mmHg 66%
    19:00 -6°C° 0 mm 2 mps 602 mmHg 75%
    20:00 -6°C° 0 mm 2 mps 602 mmHg 75%
    21:00 -7°C° 0 mm 2 mps 603 mmHg 76%
    22:00 -6°C° 0 mm 1 mps 603 mmHg 76%
    23:00 -6°C° 0 mm 1 mps 603 mmHg 76%
    Show more